星链-5295 (STARLINK-5295 )

导读

STARLINK-5295是美国太空探索技术公司Starlink星链互联网卫星星座的一员,于2023年1月19日发射。星链计划旨在构建全球卫星互联网,为地面偏远地区等提供网络接入服务,该卫星入轨后承担星座组网运营任务,服务全球用户的宽带互联网接入需求,也是低轨巨型星座扩张的组成部分。

Basic Information
目录编号:
55306
目录名称:
STARLINK-5295
国际标识:
2023-010AP
轨道中心:
EARTH
卫星名称:
星链-5295
卫星全名:
星链-5295 (STARLINK-5295 )
卫星状态:
在轨 (已飞行1332 天)
发射日期:
2023-01-19 UTC
国别 :
美国 (US)
星等 :
--
This satellite is enrolled in the Space Conjunction Data Service (SCDS) and the current flight risk assessment level is: No High Risk
Orbit Information
数据来源 国际轨道数据 AOE轨道数据
星历时间 2026-09-12T13:57:41+0800
7小时前
查看轨道信息
2026-09-10T22:00:00+0800
1天前
查看轨道信息
半长轴 6950.195km 6950.189km
偏心率 0.0003889 0.000402
轨道倾角 69.998° 69.998°
近地点辐角 262.949° 263.636°
升交点赤经 254.207° 258.407°
平近点角 97.123° 117.700°
近地点 569.355km 569.258km
远地点 574.761km 574.846km
周期 96.107分钟 96.107分钟
每日圈数 14.983296 14.983315
Detailed Information
固有亮度:
5
最大亮度:
2.5
卫星平台:
Starlink v1.5
覆盖范围:
全球
运营商:
太空探索技术公司
运营商所在国:
美国
制造商(研发单位):
太空探索技术公司
制造商所在国:
美国
使用方式:
暂无
Satellite Introduction
星链(Starlink)计划是由太空探索技术公司(SpaceX)提出的一个巨型低轨卫星互联网星座项目,计划在2019年至2024年间在太空搭建由约1.2万颗卫星组成的“星链”网络,其中1584颗将部署在地球上空550千米处的近地轨道,并从2020年开始工作。该卫星仍在工作。
2D Orbit Map
3D Orbit Map
Orbit Altitude Analysis Chart
Orbit Inclination Analysis Chart
Orbit Comprehensive Analysis Chart
View Comprehensive Chart
Miss Distance Evolution Trend with All Objects
Collision Probability Evolution Trend with All Objects